Location: New Frontier Mobile Home Park
(32.8448°N, 116.9675°W)
Time: 22:57:40
(UTC+00:00)

Cosmos 2084 - Pass Details

Date: 14 July 2020
Orbit: 571 x 612 km, 62.8° (Epoch: 05 August)

Event Time Altitude Azimuth Distance (km) Brightness Sun altitude
Rises 03:32:46 0° 338° (NNW) 2,875 8.0 -7.3°
Reaches altitude 10° 03:35:12 10° 347° (NNW) 1,965 6.8 -7.7°
Maximum altitude 03:39:19 36° 54° (NE) 968 4.4 -8.5°
Enters shadow 03:43:02 12° 120° (ESE) 1,821 5.3 -9.1°
